sat.trackr.live / text

‹ back to catalog

STARLINK-31546

NORAD 59470 · 2024-068R

PAYLOAD ACTIVE UNKNOWN

§ Identity

Operator
Country
US
Launch date
2024-04-10
Launch site
AFETR
Launch vehicle
Mass (kg)
RCS (m²)

Purposes: comms

External: N2YO · Heavens-Above · Gunter

§ Orbital elements

Epoch: 2026-05-25T04:28:02.902080Z

Period
94.27 min
Inclination
43.0008°
Eccentricity
0.0001166
Mean motion
15.27583326 rev/d
Perigee alt
482.2 km
Apogee alt
483.8 km
Semi-major
6,861.2 km
B*
-1.1129e-5
RAAN
318.8940°
Arg perigee
272.5318°
Mean anomaly
87.5400°
Rev number
12,026

§ Raw data

STARLINK-315461 59470U 24068R   26145.18614470 -.00000568  00000+0 -11129-4 0  99922 59470  43.0008 318.8940 0001166 272.5318  87.5400 15.27583326120264

JSON: /api/v1/satellites/59470 · /tle

For live sub-satellite position, see the globe view (requires WebGL).

§ Visibility from observer

Set your observer location to see the next 7 days of passes ≥ 10°. The values pass through the URL so the page stays shareable.

No JS? Fill the form by hand. The geolocation button needs JavaScript.